Regional Weather Roundup
Issued by NWS Sterling, VA

Home | Current Version | Previous Version | Graphics & Text | Print | Product List | Glossary On
Versions: 1 2 3 4 5 6 7 8 9 10 11 12 13 14 15 16 17 18 19 20 21 22 23 24 25 26 27 28
000
ASUS41 KLWX 211410
RWRLWX

REGIONAL WEATHER ROUNDUP
NATIONAL WEATHER SERVICE BALTIMORE MD/WASHINGTON DC
900 AM EST TUE NOV 21 2017

Note: "FAIR" indicates few or no clouds below 12,000 feet
with no significant weather and/or obstructions to visibility.
 TC=TEMPERATURE CELSIUS

 * =Non NWS site. Station does not report precipitation (e.g. rain,
    snow, etc.), thunder, or fog.

DCZ001-MDZ009-015-VAZ040>042-051-053>054-211500-
WASHINGTON METRO

CITY           SKY/WX    TMP DP  RH WIND       PRES   REMARKS
WASHINGTON NAT PTSUNNY   47  31  53 S13G20    30.16S
DULLES         MOSUNNY   42  29  59 S14       30.13S
ANDREWS AFB    SUNNY     46  29  53 SW10      30.14S
FT BELVOIR     SUNNY     45  29  53 SW3       30.16S
QUANTICO       MOSUNNY   48  32  53 SW13      30.17S
COLLEGE PARK*  SUNNY     45  29  53 CALM      30.14F
LEESBURG*      SUNNY     41  32  70 S6        30.13S
MANASSAS*      SUNNY     43  30  60 S8        30.15R
GAITHERSBURG*  SUNNY     44  28  53 S8        30.13S

$$

MDZ006>007-011-014-211500-
BALTIMORE METRO

CITY           SKY/WX    TMP DP  RH WIND       PRES   REMARKS
BWI AIRPORT    PTSUNNY   45  29  53 SW8G16    30.13F
MD SCIENCE CTR   N/A     47  30  51 MISG      30.16S
MARTIN STATE   MOSUNNY   48  34  57 SW9       30.15F
ANNAPOLIS      SUNNY     50  31  48 VRB7G23   30.15S
FORT MEADE*    SUNNY     36  32  87 SW9       30.17S WCI  29

$$

MDZ012-015-019>023-211500-
MARYLAND EASTERN SHORE

CITY           SKY/WX    TMP DP  RH WIND       PRES   REMARKS
OCEAN CITY     SUNNY     49  37  63 SW16      30.23R
SALISBURY      SUNNY     48  41  76 S9        30.21S
CAMBRIDGE*     SUNNY     50  34  53 VRB6G14   30.19S
EASTON*        SUNNY     50  32  50 S10       30.21S

$$

MDZ017>025-211500-
SOUTHERN MARYLAND

CITY           SKY/WX    TMP DP  RH WIND       PRES   REMARKS
PATUXENT RIVER MOSUNNY   49  29  46 SW16G26   30.18S
ST INIGOES     SUNNY     48  33  56 S10       30.20S
LEONARDTOWN*   SUNNY     46  30  53 SW13G18   30.19S

$$

MDZ003>005-211500-
NORTH CENTRAL MARYLAND

CITY           SKY/WX    TMP DP  RH WIND       PRES   REMARKS
FREDERICK*     SUNNY     39  27  60 CALM      30.15S
HAGERSTOWN APT SUNNY     39  25  57 VRB3      30.09R
WESTMINSTER*   SUNNY     43  28  56 S9        30.09S

$$

MDZ501>502-211500-
WESTERN MARYLAND

CITY           SKY/WX    TMP DP  RH WIND       PRES   REMARKS
OAKLAND*       SUNNY     43  16  33 SW13G20   29.99S
CUMBERLAND*    SUNNY     30  28  93 CALM      30.13R

$$

VAZ025>031-211500-
SHENANDOAH VALLEY

CITY           SKY/WX    TMP DP  RH WIND       PRES   REMARKS
WINCHESTER*    SUNNY     43  27  52 SW9       30.09R
FRONT ROYAL*   SUNNY     46  27  46 MISG      30.09S
LURAY*         SUNNY     45  28  53 SW9       30.11S
NEW MARKET*    SUNNY     41  24  50 SW9       30.11R
STAUNTON*      SUNNY     40  26  56 S6        30.13S
WAYNESBORO*    MOSUNNY   37  26  66 CALM      30.11S

$$

WVZ021-048>050-054>055-211500-
EASTERN WEST VIRGINIA PANHANDLE

CITY           SKY/WX    TMP DP  RH WIND       PRES   REMARKS
MARTINSBURG    CLOUDY    43  25  49 S6        30.08R
PETERSBURG*    CLOUDY    32  28  83 CALM      30.09S

$$

VAZ036>039-050-211500-
CENTRAL FOOTHILLS

CITY           SKY/WX    TMP DP  RH WIND       PRES   REMARKS
CHARLOTTESVILL SUNNY     41  28  60 S7        30.14R
CULPEPER*      SUNNY     43  28  55 S6        30.16R
ORANGE*        SUNNY     39  28  65 S7        30.16S
GORDONSVILLE*  SUNNY     40  28  63 SW3       30.15S
WARRENTON*     NOT AVBL

$$

VAZ055>057-211500-
NORTH AND CENTRAL PIEDMONT

CITY           SKY/WX    TMP DP  RH WIND       PRES   REMARKS
FREDERICKSBRG* SUNNY     50  32  49 SW17      30.16S
STAFFORD*      SUNNY     46  32  57 S3        30.20S

$$

NCZ024-NYZ072-PAZ021-071-VAZ022-071-211500-
OTHER REGIONAL OBSERVATIONS

CITY           SKY/WX    TMP DP  RH WIND       PRES   REMARKS
NEW YORK CITY  SUNNY     47  32  56 MISG      30.14F
PHILADELPHIA   MOSUNNY   48  32  53 SW15      30.15S
PITTSBURGH     PTSUNNY   45  24  43 SW18G28   29.96S
ROANOKE        MOSUNNY   32  28  85 SE3       30.18R
RICHMOND       PTSUNNY   44  33  65 S8        30.22S
RALEIGH        CLOUDY    45  36  70 CALM      30.22F

$$

ANZ530>537-211500-
MARINE OBSERVATIONS

STATION/POSITION TIME  TEMP    WIND        PRES
                       AIR SEA DIR/SP/G
                 (UTC) (F)     (DEG/KT/KT) (MB)
THOMAS PT LIGHT  1400   49 53  200/ 18/ 19   N/A
BALT KEY BRIDGE  1336   46     220/ 13/ 16 1020.3F
COVE POINT       1336   48     220/ 12/ 17 1022.6R
LEWISETTA        1336   47 49  240/ 13/ 16 1022.8R
SOLOMONS ISLAND  1336   50 52  220/ 13/ 16 1021.7R
PINEY POINT      1342          240/  9/ 14   N/A

$$





USA.gov is the U.S. government's official web portal to all federal, state and local government web resources and services.